STARLINK-5177, 54090

Orbit data source: Space-Track

STARLINK-5177, 54090 is a payload satellite owned by SpaceX/Seattle (US) in LEO that was launched on Thu, 20 Oct 2022 UTC via an FALCON 9 launch vehicle from the Air Force Eastern Test Range (AFETR). Payload-class satellites include a variety of spacecraft equipped with specific instruments for various scientific and technological missions. These include communications satellites like Starlink; space stations such as the ISS; scientific satellites like the Hubble; Earth observation satellites from companies like Planet Labs, Umbra, and HawkEye 360; GPS; miniature CubeSats for education and research; and military/defense satellites.

Loading next visibility...
Identifier
54090, 2022-136AR
Orbit
LEO
Country
Flag of USUS
Related business
Manufacturer
SpaceX/Seattle
Mission
Operational Commercial Communications
Bus & Motor
STARLINK, Unknown motor
Mass
305 kg wet, ~290 kg dry
Launch date (UTC)
2022-10-20 (3 years ago)
Launch vehicle
FALCON 9
Launch site
Air Force Eastern Test Range (AFETR)
Object type
Payload
Rocket body
Debris
Shape & HBR
Box + 1 Pan, 10.1 m
Radar Cross Section
13.562 m², Large (>1 m²)

Expand to show TLE details & history
Last TLE update: 14 hours ago

TLE from 14 hours ago
0 STARLINK-5177
1 54090U 22136AR  25303.98024965  .00002149  00000-0  15299-3 0  9993
2 54090  53.2168 196.3171 0001565  90.5938 269.5234 15.08860096167406
Epoch: 2025-10-30T23:31Z
TLE epoch observation values (Epoch: 2025-10-30T23:31:33.569Z)
Latitude
Longitude
163.89598°
Altitude
540.589 km
Speed
7.593 km/s
True Right ascension
13h 05m 16s
True Declination
0° 00' 00"
Sunlit
Object was in daylight at epoch
Visualization orbit readout
Latitude
Unknown
Longitude
Unknown
Altitude
Unknown
Speed
Unknown
Apparent Right ascension
Unknown
Apparent Declination
Unknown
Sunlit
N/A
Visualization observer readout
Local Sidereal Time
08:57:09
Azimuth
Unknown
Elevation
Unknown
Doppler factor
Unknown
Orbital elements
Apogee altitude
541.01 km
Perigee altitude
538.844 km
Semi-major axis
6,918.064 km
Eccentricity
0.00016
Inclination
53.2168°
RAAN
196.3171°
Arg. of periapsis
90.5938°
True anomaly
269.50547°
Mean anomaly
269.5234°
Eccentric anomaly
269.51443°
Mean motion
3.77195 °/min
Orbital period
95.44 mins
BSTAR
0.00015299
Loading maneuver chart data...
Computing Atmospheric mass density...
Loading historical data...
Loading historical data...
Loading historical data...
Loading historical data...
Loading historical data...
Loading historical data...
Loading historical data...

Documentation

Showing up to 5 results
|